Regional Weather Roundup
Issued by NWS

Home | Current Version | Previous Version | Text Only | Print | Product List | Glossary Off
Versions: 1 2 3 4 5 6 7 8 9 10 11 12 13 14 15 16 17 18 19 20 21 22 23 24 25 26 27 28 29 30 31 32 33 34 35 36 37 38 39 40 41 42 43 44 45 46 47 48 49 50

000
ASUS43 KOAX 172210
RWRNE

WEATHER ROUNDUP FOR NEBRASKA
NATIONAL WEATHER SERVICE OMAHA NE
400 PM CST WED JAN 17 2018

NOTES: SATELLITE DATA IS BEING USED TO AUGMENT CLOUD COVER ABOVE
       12000 FEET.
       "FAIR" INDICATES FEW OR NO CLOUDS BELOW 12,000 FEET WITH NO
       SIGNIFICANT WEATHER AND/OR OBSTRUCTIONS TO VISIBILITY.


NEZ001>004-019>022-054>056-172300-
NEBRASKA PANHANDLE

CITY           SKY/WX    TMP DP  RH WIND       PRES   REMARKS
SCOTTSBLUFF    SUNNY     44  23  43 NW5       30.26R
ALLIANCE       SUNNY     39  25  57 N8        30.24S WCI  33
CHADRON        SUNNY     46  21  37 SW7       30.24F
GORDON         FAIR      42  23  46 W9        30.23S
KIMBALL        SUNNY     43  22  43 N18       30.25S
SIDNEY         SUNNY     43  19  38 N15       30.25R
$$

NEZ057>060-069>072-079>082-172300-
SOUTHWEST NEBRASKA

CITY           SKY/WX    TMP DP  RH WIND       PRES   REMARKS
NORTH PLATTE   SUNNY     39  20  46 S6        30.26S WCI  35
IMPERIAL       SUNNY     44  15  31 NW8       30.25S
LEXINGTON      SUNNY     38  17  42 SW7       30.28F WCI  33
MCCOOK         SUNNY     40  20  44 VRB5      30.28S
OGALLALA       SUNNY     43  19  37 NW5       30.24S
$$

NEZ005>010-023>029-035>040-094-172300-
NORTH CENTRAL NEBRASKA

CITY           SKY/WX    TMP DP  RH WIND       PRES   REMARKS
VALENTINE      SUNNY     43  23  45 W9        30.22R
AINSWORTH      SUNNY     41  24  51 W7        30.22R
BROKEN BOW     SUNNY     36  19  50 S6        30.25F WCI  31
O`NEILL        SUNNY     36  19  50 SW8       30.23S WCI  30
ORD            SUNNY     37  17  44 SW9       30.26F WCI  30
THEDFORD       SUNNY     44  21  39 W5        30.23S
$$

NEZ041-046>049-061>064-073>077-083>087-172300-
SOUTH CENTRAL NEBRASKA

CITY           SKY/WX    TMP DP  RH WIND       PRES   REMARKS
GRAND ISLAND   SUNNY     31  17  56 SW13      30.31F WCI  21
AURORA         SUNNY     31  15  51 SW18      30.32S WCI  19
HASTINGS       SUNNY     31  13  47 S10       30.33S WCI  22
HEBRON         SUNNY     31  15  50 S9        30.38F WCI  23
HOLDREGE       SUNNY     35  18  50 S14       30.30S WCI  25
KEARNEY        SUNNY     31  18  58 S9        30.31S WCI  23
YORK           SUNNY     30  16  55 SW14      30.34S WCI  20
$$

NEZ011>018-030>034-042>045-172300-
NORTHEAST NEBRASKA

CITY           SKY/WX    TMP DP  RH WIND       PRES   REMARKS
NORFOLK        SUNNY     30  17  58 SW14      30.25F WCI  19
ALBION         SUNNY     34  19  54 SW8       30.28F WCI  27
BLAIR          SUNNY     31  14  48 SW16G23   30.35S WCI  20
COLUMBUS       SUNNY     34  15  46 SW13      30.32F WCI  25
FREMONT        SUNNY     32  14  47 S10       30.35S WCI  24
TEKAMAH        SUNNY     33  16  49 S16       30.34F WCI  23
WAYNE          SUNNY     32  17  53 SW12      30.27S WCI  23
$$

NEZ050>053-065>068-078-088>093-172300-
SOUTHEAST NEBRASKA

CITY           SKY/WX    TMP DP  RH WIND       PRES   REMARKS
LINCOLN        SUNNY     30  11  45 SW15      30.40S WCI  19
OMAHA EPPLEY   SUNNY     28  13  53 S14       30.39S WCI  17
BEATRICE       SUNNY     25  13  61 S14       30.41S WCI  13
FALLS CITY     SUNNY     28  10  46 SW13      30.46S WCI  17
NEBRASKA CITY  SUNNY     25  12  57 SW12      30.43S WCI  14
PLATTSMOUTH    SUNNY     24  12  61 S13G18    30.40F WCI  12
$$

NEZ044-045-051>053-067-172300-
OMAHA AREA

CITY           SKY/WX    TMP DP  RH WIND       PRES   REMARKS
OMAHA EPPLEY   SUNNY     28  13  53 S14       30.39S WCI  17
BLAIR          SUNNY     31  14  48 SW16G23   30.35S WCI  20
FREMONT        SUNNY     32  14  47 S10       30.35S WCI  24
MILLARD        SUNNY     32  13  45 SW8G16    30.40S WCI  25
OFFUTT AFB     SUNNY     25  11  56 S12       30.40S WCI  14
PLATTSMOUTH    SUNNY     24  12  61 S13G18    30.40F WCI  12
WAHOO          FAIR      31  12  45 SW12      30.36S WCI  22
$$




USA.gov is the U.S. government's official web portal to all federal, state and local government web resources and services.